QPF
0.04 0.01 0.01 0.01 0.02 0.02 0.02 0.04 0.04 0.04 0.03 0.03 0.03 0.04 0.05 0.05 0.08 0.07 0.03 0.04 0.05 0.06 0.07 0.06 0.05 0.04 0.03 0.04 0.04 0.03 0.03 0.04 0.04 0.04 0.05 0.04 0.04 0.06 0.07 0.07 0.05 0.05 0.04
0.05 0.02 0.02 0.02 0.01 0.01 0.02 0.02 0.04 0.04 0.03 0.03 0.04 0.04 0.06 0.06 0.06 0.07 0.06 0.05 0.06 0.07 0.07 0.08 0.06 0.04 0.04 0.04 0.04 0.04 0.04 0.03 0.03 0.04 0.06 0.06 0.06 0.06 0.06 0.05 0.05 0.05 0.05
0.01 0.02 0.02 0.01 0.01 0.01 0.01 0.01 0.02 0.04 0.05 0.05 0.05 0.05 0.08 0.09 0.08 0.08 0.07 0.06 0.05 0.05 0.06 0.05 0.05 0.04 0.03 0.04 0.04 0.04 0.04 0.04 0.04 0.05 0.07 0.08 0.09 0.09 0.09 0.06 0.05 0.05 0.05
0.00 0.02 0.03 0.02 0.01 0.01 0.01 0.01 0.03 0.04 0.04 0.05 0.05 0.05 0.05 0.06 0.06 0.07 0.06 0.05 0.04 0.05 0.04 0.04 0.04 0.04 0.05 0.06 0.04 0.03 0.05 0.06 0.06 0.07 0.07 0.07 0.08 0.10 0.12 0.10 0.08 0.08 0.07
0.01 0.02 0.02 0.01 0.01 0.01 0.01 0.01 0.02 0.02 0.02 0.03 0.04 0.04 0.06 0.07 0.06 0.07 0.05 0.04 0.03 0.03 0.03 0.04 0.04 0.05 0.06 0.07 0.06 0.06 0.04 0.04 0.06 0.08 0.08 0.08 0.09 0.10 0.11 0.10 0.09 0.09 0.07
0.01 0.03 0.06 0.03 0.01 0.01 0.01 0.01 0.02 0.01 0.01 0.02 0.04 0.04 0.06 0.06 0.05 0.05 0.04 0.04 0.04 0.04 0.04 0.04 0.04 0.04 0.05 0.05 0.06 0.06 0.05 0.05 0.07 0.09 0.10 0.11 0.11 0.12 0.12 0.11 0.11 0.10 0.07
0.02 0.03 0.05 0.06 0.01 0.01 0.01 0.01 0.01 0.01 0.01 0.01 0.03 0.04 0.05 0.05 0.05 0.05 0.05 0.06 0.06 0.05 0.05 0.05 0.04 0.03 0.04 0.03 0.04 0.05 0.05 0.05 0.06 0.06 0.09 0.10 0.11 0.11 0.11 0.10 0.10 0.10 0.09
0.01 0.02 0.01 0.02 0.01 0.01 0.02 0.02 0.01 0.01 0.01 0.02 0.03 0.03 0.03 0.04 0.04 0.05 0.06 0.07 0.07 0.06 0.04 0.04 0.03 0.03 0.03 0.03 0.03 0.03 0.03 0.03 0.04 0.05 0.07 0.07 0.08 0.08 0.08 0.09 0.09 0.11 0.12
0.01 0.00 0.00 0.00 0.02 0.02 0.01 0.01 0.02 0.02 0.02 0.02 0.02 0.03 0.02 0.04 0.03 0.04 0.04 0.06 0.07 0.06 0.05 0.04 0.04 0.04 0.03 0.03 0.04 0.03 0.03 0.03 0.03 0.03 0.04 0.05 0.06 0.06 0.08 0.08 0.09 0.09 0.09
0.00 0.00 0.00 0.00 0.02 0.02 0.01 0.01 0.01 0.02 0.02 0.02 0.02 0.02 0.02 0.03 0.03 0.03 0.03 0.04 0.04 0.05 0.06 0.04 0.05 0.05 0.05 0.04 0.03 0.02 0.02 0.02 0.03 0.03 0.04 0.05 0.05 0.05 0.06 0.06 0.07 0.06 0.06
0.00 0.01 0.01 0.00 0.01 0.01 0.00 0.01 0.01 0.03 0.03 0.03 0.04 0.03 0.03 0.03 0.03 0.04 0.04 0.04 0.05 0.04 0.03 0.03 0.05 0.06 0.05 0.03 0.02 0.01 0.01 0.01 0.01 0.02 0.02 0.03 0.04 0.04 0.05 0.05 0.05 0.05 0.05
0.01 0.01 0.01 0.01 0.01 0.01 0.01 0.02 0.02 0.03 0.04 0.05 0.05 0.05 0.04 0.04 0.04 0.04 0.04 0.05 0.05 0.04 0.03 0.04 0.04 0.04 0.04 0.03 0.03 0.02 0.02 0.01 0.01 0.01 0.01 0.02 0.03 0.04 0.04 0.04 0.04 0.04 0.05
0.01 0.01 0.01 0.02 0.01 0.01 0.02 0.03 0.02 0.03 0.05 0.07 0.06 0.05 0.05 0.05 0.05 0.05 0.05 0.06 0.05 0.04 0.05 0.04 0.04 0.04 0.03 0.03 0.03 0.02 0.02 0.02 0.02 0.02 0.03 0.03 0.04 0.05 0.05 0.05 0.04 0.04 0.04
0.02 0.02 0.02 0.02 0.02 0.03 0.04 0.04 0.02 0.03 0.05 0.08 0.06 0.05 0.06 0.07 0.07 0.07 0.05 0.05 0.05 0.05 0.05 0.05 0.05 0.04 0.05 0.04 0.03 0.02 0.02 0.03 0.03 0.03 0.03 0.03 0.04 0.05 0.07 0.06 0.05 0.06 0.06
0.02 0.02 0.02 0.03 0.03 0.04 0.05 0.06 0.03 0.03 0.06 0.08 0.08 0.06 0.06 0.08 0.08 0.07 0.06 0.06 0.05 0.04 0.05 0.06 0.06 0.05 0.06 0.05 0.05 0.03 0.03 0.03 0.03 0.04 0.03 0.02 0.03 0.04 0.05 0.06 0.07 0.08 0.08
0.01 0.01 0.03 0.03 0.03 0.04 0.05 0.08 0.04 0.03 0.04 0.06 0.08 0.07 0.06 0.08 0.07 0.05 0.06 0.06 0.06 0.05 0.05 0.04 0.05 0.06 0.05 0.04 0.04 0.04 0.05 0.05 0.04 0.05 0.05 0.04 0.03 0.04 0.04 0.03 0.04 0.05 0.06
0.01 0.03 0.03 0.03 0.04 0.07 0.09 0.07 0.05 0.03 0.05 0.07 0.08 0.07 0.06 0.06 0.05 0.03 0.03 0.05 0.05 0.05 0.04 0.04 0.05 0.05 0.04 0.04 0.03 0.02 0.04 0.05 0.05 0.06 0.07 0.05 0.04 0.05 0.05 0.05 0.04 0.04 0.04
0.03 0.03 0.05 0.04 0.04 0.07 0.13 0.09 0.06 0.05 0.06 0.07 0.07 0.06 0.06 0.05 0.04 0.03 0.03 0.04 0.05 0.06 0.05 0.05 0.06 0.06 0.04 0.03 0.02 0.01 0.03 0.06 0.07 0.07 0.08 0.07 0.07 0.05 0.05 0.05 0.06 0.06 0.07
0.03 0.03 0.04 0.03 0.05 0.07 0.10 0.10 0.09 0.07 0.05 0.05 0.05 0.06 0.05 0.07 0.05 0.04 0.04 0.04 0.04 0.05 0.06 0.06 0.06 0.07 0.05 0.03 0.02 0.02 0.03 0.05 0.07 0.07 0.09 0.08 0.07 0.06 0.05 0.05 0.05 0.07 0.08
0.02 0.02 0.02 0.02 0.04 0.07 0.11 0.12 0.12 0.10 0.07 0.04 0.04 0.04 0.05 0.11 0.07 0.04 0.04 0.04 0.04 0.04 0.05 0.06 0.07 0.07 0.06 0.05 0.03 0.03 0.03 0.04 0.05 0.06 0.08 0.07 0.06 0.05 0.04 0.05 0.06 0.06 0.08
0.02 0.01 0.01 0.02 0.05 0.07 0.09 0.10 0.12 0.12 0.08 0.05 0.05 0.05 0.05 0.09 0.08 0.06 0.05 0.04 0.04 0.04 0.04 0.05 0.05 0.07 0.07 0.06 0.03 0.03 0.02 0.03 0.05 0.05 0.04 0.06 0.07 0.05 0.05 0.06 0.07 0.07 0.08
0.01 0.01 0.02 0.03 0.04 0.05 0.05 0.07 0.09 0.10 0.08 0.05 0.06 0.07 0.06 0.06 0.07 0.07 0.06 0.05 0.05 0.05 0.05 0.05 0.05 0.06 0.05 0.03 0.02 0.02 0.02 0.03 0.04 0.05 0.04 0.04 0.06 0.06 0.05 0.06 0.08 0.08 0.07
0.02 0.02 0.03 0.04 0.06 0.06 0.06 0.07 0.07 0.07 0.06 0.06 0.08 0.10 0.09 0.07 0.07 0.07 0.07 0.05 0.05 0.05 0.04 0.04 0.04 0.04 0.04 0.03 0.02 0.01 0.01 0.02 0.02 0.04 0.04 0.03 0.03 0.04 0.05 0.06 0.08 0.08 0.07
0.04 0.04 0.05 0.06 0.07 0.08 0.07 0.08 0.07 0.07 0.07 0.07 0.09 0.09 0.08 0.07 0.07 0.07 0.07 0.06 0.05 0.05 0.05 0.04 0.04 0.04 0.04 0.03 0.02 0.01 0.01 0.02 0.02 0.02 0.03 0.02 0.02 0.03 0.05 0.06 0.07 0.06 0.06
0.05 0.04 0.06 0.06 0.06 0.07 0.07 0.06 0.05 0.04 0.04 0.04 0.05 0.06 0.06 0.05 0.05 0.05 0.05 0.06 0.05 0.05 0.06 0.05 0.04 0.03 0.03 0.02 0.02 0.01 0.01 0.02 0.02 0.02 0.03 0.03 0.03 0.04 0.04 0.04 0.04 0.05 0.05
0.07 0.05 0.05 0.05 0.05 0.06 0.06 0.05 0.03 0.03 0.03 0.03 0.03 0.03 0.04 0.04 0.04 0.03 0.03 0.04 0.04 0.04 0.05 0.05 0.04 0.02 0.01 0.01 0.01 0.01 0.01 0.01 0.02 0.03 0.04 0.04 0.03 0.03 0.02 0.02 0.02 0.03 0.03
MSLP
1004.87 1005.62 1006.30 1006.89 1007.40 1007.84 1008.25 1008.64 1009.05 1009.48 1009.93 1010.39 1010.82 1011.20 1011.53 1011.79 1012.00 1012.17 1012.33 1012.52 1012.74 1013.00 1013.30 1013.62 1013.93 1014.22 1014.47 1014.66 1014.82 1014.95 1015.07 1015.20 1015.35 1015.50 1015.64 1015.74 1015.76 1015.69 1015.52 1015.26 1014.97 1014.69 1014.48
1004.19 1005.09 1005.92 1006.64 1007.24 1007.73 1008.15 1008.54 1008.94 1009.36 1009.82 1010.29 1010.76 1011.19 1011.56 1011.85 1012.07 1012.24 1012.39 1012.55 1012.76 1013.01 1013.31 1013.65 1013.97 1014.28 1014.53 1014.73 1014.88 1014.99 1015.10 1015.23 1015.38 1015.54 1015.70 1015.82 1015.85 1015.78 1015.58 1015.28 1014.92 1014.56 1014.27
1003.31 1004.33 1005.30 1006.16 1006.87 1007.44 1007.91 1008.32 1008.72 1009.15 1009.62 1010.12 1010.63 1011.10 1011.50 1011.82 1012.06 1012.24 1012.39 1012.54 1012.74 1012.99 1013.30 1013.65 1013.99 1014.31 1014.57 1014.77 1014.90 1015.00 1015.09 1015.20 1015.35 1015.53 1015.71 1015.86 1015.93 1015.88 1015.69 1015.38 1014.99 1014.59 1014.23
1002.30 1003.40 1004.48 1005.45 1006.28 1006.94 1007.48 1007.94 1008.38 1008.84 1009.34 1009.87 1010.41 1010.92 1011.37 1011.72 1011.97 1012.16 1012.31 1012.46 1012.66 1012.92 1013.23 1013.59 1013.96 1014.29 1014.56 1014.75 1014.88 1014.96 1015.04 1015.13 1015.28 1015.47 1015.68 1015.86 1015.98 1015.99 1015.84 1015.56 1015.17 1014.73 1014.33
1001.24 1002.37 1003.51 1004.58 1005.50 1006.26 1006.88 1007.41 1007.91 1008.42 1008.96 1009.54 1010.13 1010.68 1011.16 1011.54 1011.82 1012.01 1012.16 1012.31 1012.50 1012.75 1013.08 1013.45 1013.83 1014.18 1014.46 1014.66 1014.79 1014.86 1014.92 1015.01 1015.15 1015.34 1015.58 1015.81 1015.99 1016.06 1015.98 1015.74 1015.38 1014.95 1014.52
1000.22 1001.31 1002.47 1003.59 1004.59 1005.43 1006.14 1006.76 1007.33 1007.90 1008.51 1009.15 1009.79 1010.39 1010.91 1011.31 1011.60 1011.80 1011.93 1012.07 1012.24 1012.48 1012.80 1013.18 1013.57 1013.94 1014.24 1014.46 1014.59 1014.66 1014.72 1014.80 1014.94 1015.14 1015.40 1015.68 1015.91 1016.05 1016.04 1015.87 1015.55 1015.15 1014.71
999.26 1000.27 1001.41 1002.55 1003.60 1004.52 1005.31 1006.01 1006.66 1007.32 1008.00 1008.70 1009.40 1010.05 1010.60 1011.03 1011.33 1011.52 1011.64 1011.74 1011.89 1012.10 1012.40 1012.77 1013.17 1013.55 1013.88 1014.12 1014.27 1014.35 1014.41 1014.49 1014.63 1014.83 1015.11 1015.41 1015.69 1015.90 1015.96 1015.87 1015.62 1015.26 1014.85
998.38 999.30 1000.40 1001.53 1002.60 1003.57 1004.43 1005.20 1005.94 1006.68 1007.43 1008.21 1008.96 1009.66 1010.25 1010.70 1011.00 1011.17 1011.27 1011.34 1011.44 1011.62 1011.89 1012.24 1012.64 1013.04 1013.38 1013.65 1013.83 1013.93 1014.00 1014.08 1014.20 1014.41 1014.68 1015.00 1015.32 1015.57 1015.71 1015.70 1015.53 1015.23 1014.86
997.57 998.42 999.46 1000.57 1001.65 1002.65 1003.56 1004.39 1005.19 1005.99 1006.82 1007.65 1008.46 1009.20 1009.82 1010.29 1010.60 1010.76 1010.83 1010.87 1010.93 1011.07 1011.31 1011.64 1012.03 1012.43 1012.80 1013.10 1013.30 1013.43 1013.50 1013.57 1013.68 1013.87 1014.13 1014.44 1014.77 1015.07 1015.27 1015.33 1015.25 1015.04 1014.73
996.86 997.66 998.66 999.74 1000.81 1001.82 1002.74 1003.61 1004.44 1005.29 1006.15 1007.03 1007.88 1008.66 1009.32 1009.81 1010.13 1010.29 1010.35 1010.37 1010.40 1010.50 1010.71 1011.02 1011.41 1011.81 1012.20 1012.52 1012.74 1012.88 1012.96 1013.01 1013.10 1013.24 1013.47 1013.76 1014.08 1014.40 1014.65 1014.79 1014.80 1014.68 1014.46
996.29 997.08 998.06 999.12 1000.17 1001.15 1002.06 1002.92 1003.75 1004.60 1005.48 1006.37 1007.24 1008.05 1008.73 1009.25 1009.60 1009.79 1009.85 1009.87 1009.89 1009.98 1010.18 1010.47 1010.85 1011.26 1011.65 1011.98 1012.22 1012.36 1012.42 1012.45 1012.49 1012.58 1012.74 1012.99 1013.29 1013.61 1013.89 1014.10 1014.20 1014.19 1014.07
995.97 996.79 997.77 998.79 999.80 1000.73 1001.59 1002.39 1003.19 1004.00 1004.85 1005.73 1006.60 1007.41 1008.12 1008.68 1009.06 1009.28 1009.39 1009.43 1009.47 1009.57 1009.76 1010.05 1010.43 1010.83 1011.23 1011.56 1011.79 1011.92 1011.95 1011.93 1011.91 1011.92 1012.02 1012.19 1012.45 1012.75 1013.05 1013.32 1013.50 1013.59 1013.59
996.05 996.90 997.87 998.86 999.80 1000.65 1001.42 1002.13 1002.84 1003.57 1004.36 1005.19 1006.03 1006.84 1007.56 1008.14 1008.57 1008.85 1009.00 1009.09 1009.17 1009.30 1009.50 1009.80 1010.17 1010.57 1010.95 1011.27 1011.48 1011.58 1011.56 1011.48 1011.38 1011.32 1011.32 1011.42 1011.61 1011.88 1012.19 1012.49 1012.75 1012.93 1013.04
996.65 997.53 998.47 999.40 1000.24 1000.98 1001.63 1002.22 1002.80 1003.42 1004.11 1004.86 1005.65 1006.42 1007.14 1007.75 1008.22 1008.55 1008.76 1008.90 1009.03 1009.19 1009.41 1009.72 1010.08 1010.47 1010.83 1011.11 1011.29 1011.34 1011.27 1011.12 1010.94 1010.78 1010.69 1010.70 1010.82 1011.05 1011.34 1011.66 1011.97 1012.23 1012.43
997.85 998.72 999.61 1000.44 1001.17 1001.77 1002.27 1002.71 1003.15 1003.63 1004.20 1004.85 1005.55 1006.28 1006.97 1007.58 1008.07 1008.43 1008.70 1008.89 1009.05 1009.24 1009.48 1009.78 1010.12 1010.48 1010.81 1011.05 1011.18 1011.18 1011.05 1010.83 1010.56 1010.32 1010.14 1010.06 1010.11 1010.27 1010.54 1010.86 1011.19 1011.51 1011.77
999.62 1000.45 1001.25 1001.96 1002.54 1002.99 1003.33 1003.62 1003.90 1004.25 1004.68 1005.21 1005.82 1006.47 1007.10 1007.68 1008.17 1008.54 1008.83 1009.04 1009.23 1009.42 1009.65 1009.94 1010.25 1010.57 1010.85 1011.04 1011.12 1011.06 1010.87 1010.59 1010.26 1009.93 1009.67 1009.52 1009.49 1009.59 1009.81 1010.11 1010.44 1010.78 1011.08
1001.84 1002.58 1003.26 1003.83 1004.26 1004.55 1004.74 1004.88 1005.02 1005.23 1005.54 1005.95 1006.45 1007.00 1007.56 1008.08 1008.52 1008.87 1009.13 1009.33 1009.51 1009.68 1009.89 1010.13 1010.41 1010.67 1010.90 1011.04 1011.07 1010.96 1010.73 1010.39 1010.01 1009.63 1009.30 1009.08 1008.98 1009.02 1009.19 1009.44 1009.75 1010.07 1010.37
1004.29 1004.90 1005.44 1005.86 1006.14 1006.30 1006.36 1006.37 1006.41 1006.50 1006.70 1007.00 1007.39 1007.83 1008.29 1008.72 1009.07 1009.36 1009.56 1009.71 1009.84 1009.97 1010.13 1010.32 1010.54 1010.75 1010.93 1011.02 1011.01 1010.87 1010.60 1010.24 1009.83 1009.41 1009.04 1008.77 1008.61 1008.59 1008.69 1008.88 1009.13 1009.41 1009.68
1006.68 1007.15 1007.54 1007.82 1007.98 1008.02 1007.99 1007.92 1007.88 1007.90 1008.01 1008.21 1008.49 1008.83 1009.17 1009.48 1009.73 1009.92 1010.04 1010.11 1010.17 1010.23 1010.33 1010.46 1010.62 1010.78 1010.91 1010.97 1010.94 1010.78 1010.51 1010.14 1009.72 1009.29 1008.90 1008.58 1008.38 1008.30 1008.33 1008.45 1008.64 1008.85 1009.06
1008.76 1009.09 1009.35 1009.51 1009.57 1009.54 1009.45 1009.34 1009.25 1009.23 1009.28 1009.41 1009.60 1009.83 1010.05 1010.24 1010.37 1010.45 1010.46 1010.45 1010.42 1010.42 1010.45 1010.54 1010.65 1010.78 1010.88 1010.92 1010.87 1010.72 1010.46 1010.10 1009.69 1009.27 1008.87 1008.53 1008.29 1008.16 1008.12 1008.17 1008.28 1008.41 1008.55
1010.35 1010.56 1010.71 1010.78 1010.78 1010.70 1010.59 1010.47 1010.38 1010.34 1010.36 1010.43 1010.55 1010.68 1010.79 1010.86 1010.88 1010.84 1010.76 1010.66 1010.57 1010.51 1010.50 1010.54 1010.63 1010.74 1010.83 1010.87 1010.84 1010.70 1010.46 1010.13 1009.74 1009.33 1008.94 1008.59 1008.33 1008.14 1008.05 1008.03 1008.06 1008.12 1008.18
1011.39 1011.50 1011.57 1011.58 1011.53 1011.45 1011.34 1011.23 1011.16 1011.12 1011.12 1011.16 1011.21 1011.25 1011.27 1011.24 1011.15 1011.03 1010.87 1010.70 1010.57 1010.48 1010.45 1010.48 1010.57 1010.68 1010.78 1010.84 1010.82 1010.71 1010.50 1010.21 1009.85 1009.46 1009.07 1008.73 1008.44 1008.23 1008.09 1008.01 1007.97 1007.96 1007.95
1011.92 1011.96 1011.97 1011.94 1011.87 1011.78 1011.69 1011.61 1011.56 1011.53 1011.52 1011.53 1011.53 1011.50 1011.44 1011.33 1011.17 1010.97 1010.77 1010.57 1010.42 1010.33 1010.31 1010.36 1010.46 1010.59 1010.72 1010.80 1010.81 1010.72 1010.55 1010.28 1009.95 1009.59 1009.22 1008.88 1008.59 1008.35 1008.18 1008.06 1007.97 1007.90 1007.83
1012.08 1012.06 1012.02 1011.96 1011.88 1011.80 1011.73 1011.67 1011.62 1011.60 1011.58 1011.56 1011.52 1011.43 1011.31 1011.14 1010.93 1010.70 1010.47 1010.28 1010.13 1010.07 1010.08 1010.16 1010.30 1010.46 1010.61 1010.71 1010.75 1010.69 1010.54 1010.30 1009.99 1009.65 1009.31 1008.98 1008.69 1008.45 1008.26 1008.12 1008.00 1007.90 1007.80
1012.02 1011.95 1011.88 1011.79 1011.70 1011.62 1011.55 1011.50 1011.46 1011.43 1011.39 1011.33 1011.25 1011.12 1010.94 1010.73 1010.49 1010.25 1010.02 1009.85 1009.74 1009.70 1009.76 1009.88 1010.05 1010.24 1010.41 1010.53 1010.58 1010.54 1010.40 1010.18 1009.90 1009.59 1009.26 1008.96 1008.69 1008.46 1008.29 1008.15 1008.02 1007.91 1007.79
1011.91 1011.80 1011.68 1011.57 1011.46 1011.37 1011.29 1011.23 1011.18 1011.13 1011.06 1010.96 1010.83 1010.65 1010.44 1010.20 1009.94 1009.70 1009.48 1009.33 1009.25 1009.26 1009.34 1009.50 1009.69 1009.89 1010.07 1010.20 1010.25 1010.21 1010.09 1009.88 1009.62 1009.34 1009.05 1008.78 1008.54 1008.35 1008.21 1008.09 1007.99 1007.90 1007.79
Thickness
5802 5802 5800 5798 5793 5787 5783 5779 5776 5773 5770 5766 5763 5760 5758 5757 5757 5755 5753 5750 5748 5746 5745 5744 5742 5741 5740 5738 5738 5737 5736 5735 5737 5734 5733 5736 5740 5739 5739 5738 5737 5735 5735
5794 5794 5793 5791 5787 5782 5779 5775 5772 5770 5768 5765 5763 5761 5758 5756 5755 5752 5750 5748 5746 5744 5743 5740 5739 5738 5737 5736 5735 5734 5732 5733 5734 5730 5726 5723 5726 5732 5736 5735 5734 5734 5733
5790 5788 5787 5785 5782 5778 5775 5773 5768 5766 5764 5763 5762 5759 5755 5753 5750 5747 5745 5745 5743 5741 5740 5738 5738 5736 5735 5733 5732 5731 5729 5727 5730 5730 5724 5717 5716 5721 5728 5731 5731 5731 5730
5790 5786 5783 5780 5778 5776 5774 5771 5766 5763 5761 5760 5758 5754 5750 5746 5746 5745 5743 5742 5741 5739 5738 5736 5735 5734 5733 5731 5730 5729 5728 5725 5723 5725 5725 5723 5721 5715 5715 5721 5725 5726 5726
5790 5785 5782 5779 5777 5775 5771 5767 5764 5760 5758 5757 5755 5752 5749 5747 5746 5744 5741 5739 5738 5737 5736 5734 5733 5731 5729 5728 5727 5726 5725 5723 5721 5720 5720 5720 5719 5718 5712 5710 5715 5718 5721
5788 5783 5780 5776 5774 5772 5768 5764 5759 5756 5755 5754 5752 5749 5746 5744 5742 5739 5736 5735 5734 5733 5732 5732 5730 5728 5726 5725 5724 5723 5722 5720 5719 5718 5718 5716 5714 5712 5711 5708 5709 5710 5713
5782 5777 5773 5768 5767 5766 5764 5761 5756 5752 5751 5749 5748 5746 5744 5741 5738 5736 5734 5732 5730 5729 5728 5728 5727 5726 5724 5723 5722 5720 5719 5718 5717 5715 5715 5715 5714 5714 5711 5708 5706 5706 5709
5775 5771 5769 5767 5764 5762 5760 5757 5752 5748 5747 5745 5743 5743 5741 5738 5736 5733 5732 5729 5728 5727 5727 5725 5724 5723 5722 5721 5719 5718 5717 5715 5714 5714 5712 5712 5712 5712 5710 5707 5703 5700 5701
5769 5767 5766 5764 5760 5757 5756 5753 5748 5745 5743 5741 5739 5738 5736 5734 5731 5730 5728 5726 5725 5725 5723 5722 5720 5719 5718 5717 5716 5714 5713 5712 5711 5710 5709 5709 5709 5709 5708 5707 5703 5697 5692
5764 5763 5761 5760 5756 5754 5753 5750 5746 5741 5739 5737 5735 5734 5732 5729 5727 5726 5723 5722 5722 5721 5719 5717 5716 5715 5714 5713 5712 5711 5710 5708 5707 5707 5705 5705 5705 5705 5704 5703 5702 5699 5693
5758 5755 5755 5754 5753 5752 5749 5745 5741 5737 5735 5733 5732 5730 5728 5726 5723 5721 5720 5719 5718 5717 5715 5714 5712 5711 5710 5709 5707 5706 5706 5704 5703 5702 5701 5701 5701 5700 5700 5699 5697 5694 5691
5753 5751 5750 5748 5747 5745 5743 5740 5737 5734 5731 5730 5727 5725 5723 5721 5719 5716 5715 5714 5713 5712 5711 5710 5708 5707 5706 5705 5703 5701 5701 5700 5698 5697 5696 5696 5696 5694 5694 5692 5690 5688 5687
5747 5746 5743 5741 5740 5739 5737 5734 5732 5730 5728 5725 5722 5719 5717 5715 5713 5711 5710 5709 5708 5706 5706 5704 5703 5702 5702 5700 5699 5697 5697 5696 5694 5693 5691 5690 5689 5688 5687 5686 5684 5682 5682
5739 5737 5735 5734 5733 5731 5730 5728 5727 5726 5723 5720 5716 5713 5711 5709 5708 5706 5706 5704 5703 5701 5700 5699 5698 5698 5696 5695 5694 5693 5691 5690 5689 5688 5687 5685 5684 5682 5681 5680 5678 5676 5674
5730 5729 5727 5726 5725 5724 5722 5721 5720 5719 5717 5713 5709 5707 5706 5704 5702 5700 5700 5698 5697 5696 5694 5693 5692 5692 5691 5689 5687 5686 5686 5685 5683 5682 5681 5680 5679 5678 5676 5675 5672 5670 5667
5723 5722 5719 5717 5716 5715 5715 5714 5712 5711 5709 5706 5702 5701 5699 5697 5696 5695 5694 5692 5691 5690 5689 5687 5687 5686 5686 5682 5680 5680 5680 5678 5677 5676 5676 5675 5674 5673 5671 5670 5667 5665 5662
5716 5714 5712 5710 5709 5708 5707 5705 5705 5704 5702 5700 5697 5695 5693 5691 5690 5690 5689 5687 5685 5684 5683 5682 5681 5680 5678 5676 5675 5674 5674 5673 5673 5671 5670 5671 5671 5668 5666 5664 5662 5660 5659
5709 5707 5704 5702 5703 5702 5701 5698 5698 5696 5694 5693 5691 5690 5689 5687 5686 5684 5683 5682 5680 5679 5678 5677 5677 5675 5673 5670 5669 5669 5669 5669 5668 5667 5666 5665 5665 5664 5660 5659 5657 5656 5655
5702 5700 5698 5696 5695 5693 5692 5690 5689 5688 5687 5686 5685 5685 5684 5682 5680 5678 5677 5676 5675 5673 5673 5672 5672 5670 5667 5665 5664 5663 5664 5664 5663 5662 5662 5661 5659 5657 5655 5653 5652 5651 5650
5694 5692 5691 5689 5686 5685 5684 5682 5680 5680 5679 5680 5680 5679 5678 5676 5674 5672 5671 5671 5669 5668 5667 5667 5666 5665 5663 5659 5658 5657 5658 5657 5657 5656 5655 5654 5653 5651 5649 5648 5647 5645 5644
5684 5685 5683 5680 5679 5678 5675 5672 5672 5671 5673 5674 5673 5672 5671 5670 5668 5667 5665 5664 5663 5662 5661 5660 5660 5660 5658 5654 5652 5651 5651 5651 5651 5650 5649 5648 5647 5645 5644 5642 5642 5641 5639
5674 5675 5674 5672 5670 5670 5667 5664 5663 5665 5666 5666 5665 5665 5664 5663 5662 5660 5659 5659 5658 5656 5655 5654 5653 5654 5652 5649 5646 5645 5644 5644 5644 5644 5644 5642 5640 5639 5639 5638 5637 5636 5635
5664 5665 5664 5662 5661 5661 5659 5657 5656 5658 5657 5657 5657 5657 5657 5655 5654 5653 5652 5652 5651 5651 5651 5650 5649 5648 5647 5644 5641 5639 5638 5638 5637 5638 5637 5636 5635 5634 5634 5633 5632 5631 5630
5655 5655 5654 5652 5651 5652 5651 5650 5650 5650 5649 5648 5647 5648 5648 5647 5646 5646 5646 5645 5645 5645 5645 5645 5644 5643 5641 5638 5636 5634 5633 5632 5631 5631 5631 5631 5630 5631 5630 5629 5628 5627 5627
5646 5646 5646 5645 5644 5644 5644 5644 5644 5643 5641 5640 5639 5640 5640 5640 5638 5638 5638 5639 5639 5639 5639 5639 5638 5637 5635 5633 5631 5630 5630 5629 5627 5626 5627 5627 5627 5627 5627 5627 5626 5625 5624
5638 5638 5639 5639 5639 5638 5637 5638 5638 5637 5634 5633 5633 5633 5634 5634 5633 5632 5632 5632 5633 5632 5632 5633 5633 5632 5630 5628 5627 5625 5625 5624 5622 5621 5623 5623 5624 5624 5624 5623 5623 5621 5620